T10BNORTH Weather Reports


time (UTC)temp
F
wind
direction
speed
knots
gust
knots
rain 1hr
in
rain 24hr
in
rain mn
in
humidity
%
barometer
mb
20260504202321 64 183 3.5 11.3 0.00 0.00 0.00 44 1004.0
20260504202221 64 240 3.5 11.3 0.00 0.00 0.00 45 1004.1
20260504202121 64 345 3.5 11.3 0.00 0.00 0.00 45 1004.1
20260504202023 64 94 3.5 11.3 0.00 0.00 0.00 46 1004.1
20260504201921 64 91 3.5 11.3 0.00 0.00 0.00 47 1004.1
20260504201821 64 69 3.5 11.3 0.00 0.00 0.00 47 1004.1
20260504201723 63 293 4.3 11.3 0.00 0.00 0.00 46 1004.1
20260504201622 63 93 4.3 11.3 0.00 0.00 0.00 48 1004.1
20260504201521 63 39 3.5 11.3 0.00 0.00 0.00 47 1004.1
20260504201421 63 206 3.5 11.3 0.00 0.00 0.00 47 1004.1
20260504201322 63 165 3.5 9.6 0.00 0.00 0.00 46 1004.0
20260504201221 63 146 3.5 8.7 0.00 0.00 0.00 45 1004.0
20260504201138 64 154 3.5 8.7 0.00 0.00 0.00 45 1004.2
20260504201116 64 170 3.5 8.7 0.00 0.00 0.00 45 1004.1
20260504200922 64 42 3.5 8.7 0.00 0.00 0.00 45 1004.1
20260504200821 64 227 3.5 8.7 0.00 0.00 0.00 45 1004.1
20260504200713 64 294 2.6 8.7 0.00 0.00 0.00 46 1004.1
20260504200613 64 98 2.6 8.7 0.00 0.00 0.00 45 1004.1
20260504200513 64 350 2.6 8.7 0.00 0.00 0.00 47 1004.0
20260504200413 64 327 2.6 8.7 0.00 0.00 0.00 45 1004.0
20260504200313 64 213 2.6 8.7 0.00 0.00 0.00 44 1004.0
20260504200215 64 115 2.6 8.7 0.00 0.00 0.00 45 1004.0
20260504200111 64 236 2.6 8.7 0.00 0.00 0.00 45 1004.0
20260504200012 64 348 2.6 8.7 0.00 0.00 0.00 46 1004.0
20260504195911 64 195 2.6 9.6 0.00 0.00 0.00 47 1004.0
20260504195811 64 5 3.5 9.6 0.00 0.00 0.00 47 1004.0
20260504195712 64 19 3.5 10.4 0.00 0.00 0.00 46 1004.1
20260504195613 64 43 3.5 10.4 0.00 0.00 0.00 47 1004.1
20260504195407 64 115 4.3 10.4 0.00 0.00 0.00 46 1004.0
20260504195309 64 24 4.3 10.4 0.00 0.00 0.00 48 1004.0
20260504195207 63 78 4.3 10.4 0.00 0.00 0.00 47 1004.0
20260504195107 63 33 4.3 10.4 0.00 0.00 0.00 50 1004.0
20260504194907 63 245 3.5 10.4 0.00 0.00 0.00 48 1004.0
20260504194807 63 105 3.5 10.4 0.00 0.00 0.00 49 1004.1
20260504194708 63 107 2.6 9.6 0.00 0.00 0.00 48 1004.1
20260504194607 63 163 2.6 9.6 0.00 0.00 0.00 48 1004.0
20260504194407 63 127 2.6 9.6 0.00 0.00 0.00 48 1004.1
20260504194307 63 272 2.6 9.6 0.00 0.00 0.00 48 1004.0
20260504194207 63 239 2.6 9.6 0.00 0.00 0.00 49 1004.1
20260504194133 63 114 2.6 7.0 0.00 0.00 0.00 48 1004.2
20260504194111 63 5 2.6 7.0 0.00 0.00 0.00 48 1004.2
20260504193909 63 62 2.6 7.0 0.00 0.00 0.00 49 1004.2
20260504193807 63 63 3.5 7.0 0.00 0.00 0.00 49 1004.2
20260504193707 63 97 3.5 7.0 0.00 0.00 0.00 48 1004.3
20260504193633 63 267 3.5 7.0 0.00 0.00 0.00 48 1004.3
20260504193613 63 136 3.5 7.8 0.00 0.00 0.00 48 1004.2
20260504193409 63 113 3.5 9.6 0.00 0.00 0.00 49 1004.3
20260504193307 63 62 3.5 9.6 0.00 0.00 0.00 48 1004.2
20260504193207 63 175 3.5 9.6 0.00 0.00 0.00 47 1004.3
20260504193107 63 153 3.5 9.6 0.00 0.00 0.00 48 1004.2
20260504192907 64 5 3.5 9.6 0.00 0.00 0.00 48 1004.2
20260504192808 64 173 3.5 9.6 0.00 0.00 0.00 47 1004.3
20260504192708 64 293 2.6 9.6 0.00 0.00 0.00 49 1004.1
20260504192608 64 128 2.6 9.6 0.00 0.00 0.00 47 1004.2
20260504192507 64 154 2.6 9.6 0.00 0.00 0.00 48 1004.3
20260504192407 64 54 2.6 7.8 0.00 0.00 0.00 48 1004.4
20260504192307 64 123 2.6 10.4 0.00 0.00 0.00 48 1004.3
20260504192207 64 219 2.6 10.4 0.00 0.00 0.00 49 1004.2
20260504192107 64 37 2.6 10.4 0.00 0.00 0.00 47 1004.2
20260504192007 64 107 2.6 10.4 0.00 0.00 0.00 50 1004.3
20260504191908 64 237 2.6 10.4 0.00 0.00 0.00 48 1004.3
20260504191808 63 15 2.6 10.4 0.00 0.00 0.00 49 1004.2
20260504191707 63 46 2.6 10.4 0.00 0.00 0.00 50 1004.3
20260504191627 63 171 2.6 10.4 0.00 0.00 0.00 51 1004.3
20260504191605 63 41 2.6 10.4 0.00 0.00 0.00 49 1004.2
20260504191404 63 59 2.6 10.4 0.00 0.00 0.00 48 1004.3
20260504191302 63 24 2.6 9.6 0.00 0.00 0.00 48 1004.3
20260504191203 63 73 2.6 9.6 0.00 0.00 0.00 48 1004.3
20260504191126 63 188 2.6 9.6 0.00 0.00 0.00 48 1004.4
20260504191105 63 36 2.6 9.6 0.00 0.00 0.00 48 1004.4
20260504190904 63 168 3.5 9.6 0.00 0.00 0.00 48 1004.3
20260504190800 63 192 3.5 9.6 0.00 0.00 0.00 48 1004.4
20260504190659 63 157 3.5 9.6 0.00 0.00 0.00 49 1004.4
20260504190559 63 59 3.5 9.6 0.00 0.00 0.00 49 1004.4
20260504190502 63 98 3.5 9.6 0.00 0.00 0.00 48 1004.4
20260504190400 63 203 3.5 9.6 0.00 0.00 0.00 50 1004.4
20260504190301 63 219 3.5 9.6 0.00 0.00 0.00 49 1004.3
20260504190159 63 155 3.5 9.6 0.00 0.00 0.00 48 1004.3
20260504190058 63 200 3.5 8.7 0.00 0.00 0.00 48 1004.4
20260504190003 63 355 3.5 8.7 0.00 0.00 0.00 49 1004.4
20260504185900 63 292 3.5 8.7 0.00 0.00 0.00 50 1004.5
20260504185801 63 59 3.5 8.7 0.00 0.00 0.00 50 1004.4
20260504185658 63 121 3.5 8.7 0.00 0.00 0.00 51 1004.4
20260504185558 62 287 3.5 8.7 0.00 0.00 0.00 50 1004.4
20260504185357 62 171 4.3 13.0 0.00 0.00 0.00 51 1004.2
20260504185257 62 107 4.3 13.0 0.00 0.00 0.00 51 1004.4
20260504185159 62 11 4.3 13.0 0.00 0.00 0.00 52 1004.3
20260504185124 62 98 4.3 13.0 0.00 0.00 0.00 51 1004.5
20260504185102 62 32 4.3 13.0 0.00 0.00 0.00 51 1004.4
20260504184853 62 88 4.3 13.0 0.00 0.00 0.00 52 1004.7
20260504184755 62 217 3.5 13.0 0.00 0.00 0.00 51 1004.4
20260504184652 62 219 3.5 13.0 0.00 0.00 0.00 50 1004.4
20260504184621 62 178 3.5 13.0 0.00 0.00 0.00 51 1004.6
20260504184556 62 191 2.6 13.0 0.00 0.00 0.00 51 1004.5
20260504184342 62 235 2.6 10.4 0.00 0.00 0.00 53 1004.6
20260504184243 62 119 2.6 7.8 0.00 0.00 0.00 51 1004.6
20260504184142 62 98 2.6 7.8 0.00 0.00 0.00 54 1004.7
20260504184041 62 347 3.5 7.8 0.00 0.00 0.00 52 1004.6
20260504183840 62 117 3.5 9.6 0.00 0.00 0.00 53 1004.7
20260504183739 61 26 3.5 9.6 0.00 0.00 0.00 54 1004.7
20260504183639 61 279 4.3 9.6 0.00 0.00 0.00 52 1004.6
20260504183538 61 194 4.3 9.6 0.00 0.00 0.00 52 1004.7
20260504183330 61 165 3.5 9.6 0.00 0.00 0.00 54 1004.7
20260504183230 61 157 3.5 9.6 0.00 0.00 0.00 52 1004.9
20260504183131 61 307 3.5 9.6 0.00 0.00 0.00 53 1004.8
20260504183030 61 129 3.5 12.2 0.00 0.00 0.00 53 1004.8
20260504182816 61 185 2.6 12.2 0.00 0.00 0.00 53 1004.8
20260504182715 61 136 2.6 12.2 0.00 0.00 0.00 56 1004.9
20260504182615 61 319 2.6 12.2 0.00 0.00 0.00 56 1004.9
20260504182515 61 121 2.6 12.2 0.00 0.00 0.00 54 1004.9
20260504182310 60 178 3.5 12.2 0.00 0.00 0.00 54 1004.8
20260504182208 60 126 3.5 12.2 0.00 0.00 0.00 55 1004.8
20260504182109 60 126 3.5 10.4 0.00 0.00 0.00 58 1004.8
20260504182036 60 91 3.5 10.4 0.00 0.00 0.00 55 1004.9
20260504182014 60 49 3.5 10.4 0.00 0.00 0.00 55 1004.9
20260504181804 60 176 3.5 10.4 0.00 0.00 0.00 55 1005.0
20260504181703 60 106 4.3 10.4 0.00 0.00 0.00 55 1004.9
20260504181604 59 178 3.5 10.4 0.00 0.00 0.00 54 1004.9
20260504181505 59 142 3.5 10.4 0.00 0.00 0.00 54 1004.9
20260504181252 59 103 3.5 8.7 0.00 0.00 0.00 56 1005.0
20260504181153 59 151 3.5 8.7 0.00 0.00 0.00 55 1005.0
20260504181054 59 247 3.5 8.7 0.00 0.00 0.00 55 1004.9
20260504181019 59 269 3.5 8.7 0.00 0.00 0.00 55 1005.0
20260504180958 59 132 2.6 8.7 0.00 0.00 0.00 55 1004.9
20260504180749 59 152 2.6 7.8 0.00 0.00 0.00 55 1004.9
20260504180648 59 266 2.6 7.0 0.00 0.00 0.00 56 1005.0
20260504180547 59 30 2.6 7.8 0.00 0.00 0.00 56 1005.0
20260504180448 59 24 2.6 8.7 0.00 0.00 0.00 56 1004.9
20260504180242 58 172 2.6 8.7 0.00 0.00 0.00 58 1005.0
20260504180143 58 221 2.6 8.7 0.00 0.00 0.00 56 1005.0
20260504180042 58 110 2.6 8.7 0.00 0.00 0.00 56 1005.1
20260504175940 58 251 2.6 8.7 0.00 0.00 0.00 57 1005.1
20260504175730 58 30 2.6 8.7 0.00 0.00 0.00 59 1005.0
20260504175630 57 179 1.7 8.7 0.00 0.00 0.00 57 1005.3
20260504175529 57 161 1.7 6.1 0.00 0.00 0.00 56 1005.3
20260504175430 57 221 1.7 6.1 0.00 0.00 0.00 57 1005.3
20260504175224 57 229 1.7 6.1 0.00 0.00 0.00 58 1005.3
20260504175122 57 173 1.7 9.6 0.00 0.00 0.00 59 1005.3
20260504175022 56 154 1.7 9.6 0.00 0.00 0.00 59 1005.1
20260504174923 56 80 1.7 9.6 0.00 0.00 0.00 60 1005.1
20260504174716 56 142 2.6 9.6 0.00 0.00 0.00 60 1005.1
20260504174615 55 143 2.6 9.6 0.00 0.00 0.00 60 1005.1
20260504174516 55 25 2.6 9.6 0.00 0.00 0.00 62 1005.1
20260504174416 55 13 2.6 9.6 0.00 0.00 0.00 60 1005.1
20260504174205 55 0 2.6 9.6 0.00 0.00 0.00 61 1005.3
20260504174104 55 23 2.6 7.8 0.00 0.00 0.00 60 1005.3
20260504174006 55 25 1.7 7.8 0.00 0.00 0.00 60 1005.1
20260504173906 55 355 1.7 7.8 0.00 0.00 0.00 60 1005.4
20260504173700 55 333 1.7 7.8 0.00 0.00 0.00 60 1005.4
20260504173559 55 10 1.7 7.8 0.00 0.00 0.00 60 1005.4
20260504173500 55 277 1.7 7.8 0.00 0.00 0.00 60 1005.4
20260504173358 55 233 1.7 7.8 0.00 0.00 0.00 60 1005.5
20260504173154 55 5 1.7 5.2 0.00 0.00 0.00 60 1005.5
20260504173053 55 309 1.7 5.2 0.00 0.00 0.00 60 1005.5
20260504172955 56 309 1.7 5.2 0.00 0.00 0.00 60 1005.4
20260504172919 56 311 1.7 5.2 0.00 0.00 0.00 60 1005.4
20260504172858 56 47 1.7 5.2 0.00 0.00 0.00 59 1005.4
20260504172640 56 11 1.7 6.1 0.00 0.00 0.00 60 1005.4
20260504172539 56 220 1.7 7.8 0.00 0.00 0.00 59 1005.4
20260504172438 56 335 2.6 7.8 0.00 0.00 0.00 59 1005.3
20260504172339 56 350 1.7 7.8 0.00 0.00 0.00 61 1005.3
20260504172135 56 298 2.6 13.0 0.00 0.00 0.00 60 1005.4
20260504172033 55 301 2.6 13.0 0.00 0.00 0.00 61 1005.4
20260504171934 55 296 3.5 13.0 0.00 0.00 0.00 60 1005.3
20260504171832 55 9 3.5 13.0 0.00 0.00 0.00 62 1005.3
20260504171631 56 24 3.5 13.0 0.00 0.00 0.00 59 1005.3
20260504171530 56 299 3.5 13.0 0.00 0.00 0.00 61 1005.1
20260504171433 56 298 3.5 13.0 0.00 0.00 0.00 60 1005.1
20260504171330 56 315 2.6 13.0 0.00 0.00 0.00 58 1005.1
20260504171120 56 318 2.6 10.4 0.00 0.00 0.00 59 1005.0
20260504171020 56 5 2.6 10.4 0.00 0.00 0.00 57 1004.9
20260504170919 56 350 2.6 10.4 0.00 0.00 0.00 57 1005.1
20260504170818 56 32 2.6 10.4 0.00 0.00 0.00 57 1005.0
20260504170718 56 86 2.6 10.4 0.00 0.00 0.00 58 1005.0
20260504170611 56 200 2.6 10.4 0.00 0.00 0.00 58 1005.0
20260504170511 57 323 2.6 10.4 0.00 0.00 0.00 57 1005.0
20260504170411 57 355 2.6 10.4 0.00 0.00 0.00 57 1004.9
20260504170339 57 261 2.6 10.4 0.00 0.00 0.00 58 1004.9
20260504170212 57 75 2.6 7.8 0.00 0.00 0.00 57 1005.0
20260504170105 57 228 2.6 7.8 0.00 0.00 0.00 56 1005.0
20260504160436 57 331 3.5 10.4 0.00 0.00 0.00 56 1004.7
20260504160347 57 294 3.5 10.4 0.00 0.00 0.00 56 1004.7
20260504160326 56 114 3.5 10.4 0.00 0.00 0.00 57 1004.7
20260504160136 56 308 3.5 10.4 0.00 0.00 0.00 57 1004.6
20260504151115 58 130 4.3 12.2 0.00 0.00 0.00 54 1004.7
20260504151016 58 140 4.3 12.2 0.00 0.00 0.00 54 1004.7
20260504150916 58 123 3.5 8.7 0.00 0.00 0.00 55 1004.7
20260504150805 58 64 3.5 8.7 0.00 0.00 0.00 54 1004.7
20260504150606 58 169 2.6 11.3 0.00 0.00 0.00 56 1004.7
20260504150505 58 88 2.6 11.3 0.00 0.00 0.00 55 1004.8
20260504150405 58 77 2.6 11.3 0.00 0.00 0.00 54 1004.8
20260504150259 58 180 2.6 11.3 0.00 0.00 0.00 57 1004.8
20260504150200 58 90 2.6 11.3 0.00 0.00 0.00 55 1004.8
20260504141308 55 322 3.5 9.6 0.00 0.00 0.00 57 1005.4
20260504141209 55 266 3.5 9.6 0.00 0.00 0.00 57 1005.4
20260504141108 55 167 2.6 7.8 0.00 0.00 0.00 57 1005.4
20260504141008 56 148 2.6 7.8 0.00 0.00 0.00 58 1005.4
20260504140909 56 169 2.6 7.8 0.00 0.00 0.00 59 1005.4
20260504140808 55 110 2.6 7.8 0.00 0.00 0.00 58 1005.5
20260504140708 55 205 2.6 7.8 0.00 0.00 0.00 59 1005.5
20260504140609 55 243 2.6 10.4 0.00 0.00 0.00 58 1005.4
20260504140508 55 168 2.6 10.4 0.00 0.00 0.00 59 1005.4
20260504140410 55 254 2.6 10.4 0.00 0.00 0.00 59 1005.5
20260504140302 55 330 2.6 10.4 0.00 0.00 0.00 59 1005.5
20260504140202 55 94 2.6 10.4 0.00 0.00 0.00 59 1005.5
20260504140104 55 11 3.5 10.4 0.00 0.00 0.00 59 1005.5
20260504130730 48 124 2.6 10.4 0.00 0.00 0.00 74 1006.0
20260504130632 48 164 2.6 10.4 0.00 0.00 0.00 74 1006.1
20260504130530 48 128 2.6 10.4 0.00 0.00 0.00 74 1006.1
20260504130431 48 196 2.6 10.4 0.00 0.00 0.00 74 1006.1
20260504130331 48 161 2.6 10.4 0.00 0.00 0.00 74 1006.1
20260504130230 48 278 2.6 10.4 0.00 0.00 0.00 75 1006.2
20260504130132 48 133 2.6 10.4 0.00 0.00 0.00 75 1006.2
20260504120314 45 188 2.6 7.0 0.00 0.00 0.00 79 1006.4
20260504120239 45 164 1.7 7.0 0.00 0.00 0.00 79 1006.4
20260504120218 45 140 1.7 7.0 0.00 0.00 0.00 79 1006.4
20260504110647 40 92 0.0 0.0 0.00 0.00 0.00 84 1006.6
20260504110546 40 92 0.0 0.0 0.00 0.00 0.00 85 1006.6
20260504110342 40 92 0.0 0.0 0.00 0.00 0.00 84 1006.7
20260504110241 40 92 0.0 0.0 0.00 0.00 0.00 84 1006.7
20260504110141 40 92 0.0 0.0 0.00 0.00 0.00 84 1006.7
20260504100611 39 92 0.0 0.0 0.00 0.00 0.00 83 1006.5
20260504100510 39 92 0.0 0.0 0.00 0.00 0.00 83 1006.5
20260504100410 39 92 0.0 0.0 0.00 0.00 0.00 84 1006.5
20260504100204 39 92 0.0 0.0 0.00 0.00 0.00 83 1006.6
20260504100104 39 92 0.0 0.0 0.00 0.00 0.00 83 1006.6
20260504081929 40 90 0.0 1.7 0.00 0.00 0.00 78 1006.7
20260504081859 40 58 0.0 3.5 0.00 0.00 0.00 78 1006.7
20260504081726 40 58 0.0 3.5 0.00 0.00 0.00 78 1006.7
20260504081650 40 58 0.0 3.5 0.00 0.00 0.00 78 1006.8
20260504081629 40 58 0.0 3.5 0.00 0.00 0.00 78 1006.7
20260504081414 40 58 0.0 3.5 0.00 0.00 0.00 78 1006.7
20260504081314 40 58 0.0 3.5 0.00 0.00 0.00 78 1006.6
20260504081214 40 58 0.0 3.5 0.00 0.00 0.00 78 1006.6
20260504081115 40 58 0.0 3.5 0.00 0.00 0.00 78 1006.6
20260504080911 40 59 0.0 3.5 0.00 0.00 0.00 77 1006.6
20260504080812 40 211 0.0 1.7 0.00 0.00 0.00 77 1006.7
20260504080713 40 211 0.0 1.7 0.00 0.00 0.00 77 1006.7
20260504080634 40 211 0.0 1.7 0.00 0.00 0.00 78 1006.8
20260504080613 40 211 0.0 1.7 0.00 0.00 0.00 78 1006.8
20260504080409 40 211 0.0 1.7 0.00 0.00 0.00 78 1006.8
20260504080307 40 211 0.0 1.7 0.00 0.00 0.00 77 1006.8
20260504080205 40 211 0.0 1.7 0.00 0.00 0.00 78 1006.7
20260504080106 40 211 0.0 1.7 0.00 0.00 0.00 78 1006.7
20260504070243 41 342 0.9 7.0 0.00 0.00 0.00 69 1006.6
20260504070141 41 342 0.9 7.0 0.00 0.00 0.00 69 1006.6
20260504060221 39 44 0.9 4.3 0.00 0.00 0.00 65 1006.3
20260504060119 39 259 0.9 3.5 0.00 0.00 0.00 64 1006.3
20260504050659 37 13 0.9 4.3 0.00 0.00 0.00 68 1006.4
20260504050600 36 13 0.9 4.3 0.00 0.00 0.00 69 1006.4
20260504050458 36 13 0.9 4.3 0.00 0.00 0.00 69 1006.5
20260504050356 36 12 0.9 4.3 0.00 0.00 0.00 68 1006.4
20260504050258 36 15 0.0 4.3 0.00 0.00 0.00 68 1006.4
20260504050157 36 231 0.0 3.5 0.00 0.00 0.00 71 1006.4
20260504045955 36 316 0.0 3.5 0.00 0.00 0.00 70 1006.5
20260504045857 36 316 0.0 3.5 0.00 0.00 0.00 69 1006.4
20260504045753 36 207 0.0 0.0 0.00 0.00 0.00 68 1006.5
20260504045653 36 207 0.0 0.0 0.00 0.00 0.00 70 1006.5
20260504045551 36 207 0.0 0.0 0.00 0.00 0.00 70 1006.6
20260504045451 36 207 0.0 0.0 0.00 0.00 0.00 70 1006.6
20260504045348 36 207 0.0 0.0 0.00 0.00 0.00 70 1006.5
20260504045247 36 207 0.0 0.0 0.00 0.00 0.00 70 1006.6
20260504045146 36 207 0.0 0.0 0.00 0.00 0.00 67 1006.5
20260504045045 36 207 0.0 0.0 0.00 0.01 0.00 69 1006.5
20260504044943 36 207 0.0 0.0 0.00 0.01 0.00 71 1006.6
20260504044922 36 207 0.0 1.7 0.00 0.01 0.00 69 1006.6
20260504044740 36 207 0.0 1.7 0.00 0.01 0.00 69 1006.6
20260504044639 35 207 0.0 1.7 0.00 0.01 0.00 68 1006.6
20260504044538 35 207 0.0 1.7 0.00 0.01 0.00 68 1006.6
20260504044439 35 207 0.0 1.7 0.00 0.01 0.00 69 1006.6
20260504044338 35 207 0.0 1.7 0.00 0.01 0.00 69 1006.6
20260504044235 35 207 0.0 1.7 0.00 0.01 0.00 69 1006.6
20260504044133 35 207 0.0 1.7 0.00 0.01 0.00 69 1006.6
20260504044033 35 207 0.0 1.7 0.00 0.01 0.00 70 1006.6
20260504043931 35 207 0.0 1.7 0.00 0.01 0.00 68 1006.6
20260504043732 36 206 0.0 1.7 0.00 0.01 0.00 69 1006.6
20260504043631 36 206 0.0 1.7 0.00 0.01 0.00 69 1006.6
20260504043532 36 206 0.0 1.7 0.00 0.01 0.00 68 1006.6
20260504043429 36 206 0.0 1.7 0.00 0.01 0.00 68 1006.6
20260504043328 36 206 0.0 1.7 0.00 0.01 0.00 67 1006.6
20260504043227 36 206 0.0 1.7 0.00 0.01 0.00 68 1006.7
20260504043125 36 206 0.0 1.7 0.00 0.01 0.00 69 1006.7
20260504043020 36 206 0.0 1.7 0.00 0.01 0.00 69 1006.6
20260504042919 36 206 0.0 1.7 0.00 0.01 0.00 69 1006.6
20260504042821 36 206 0.0 1.7 0.00 0.01 0.00 67 1006.6
20260504042720 36 206 0.0 1.7 0.00 0.01 0.00 67 1006.6
20260504042619 36 206 0.0 0.0 0.00 0.01 0.00 67 1006.7
20260504042513 36 206 0.0 0.0 0.00 0.01 0.00 67 1006.7
20260504042424 36 206 0.0 0.0 0.00 0.01 0.00 68 1006.7
20260504042404 36 206 0.0 0.0 0.00 0.01 0.00 69 1006.7
20260504042208 36 206 0.0 0.0 0.00 0.01 0.00 69 1006.7
20260504042105 36 206 0.0 0.9 0.00 0.01 0.00 68 1006.7
20260504042006 36 206 0.0 0.9 0.00 0.01 0.00 70 1006.7
20260504041903 36 206 0.0 0.9 0.00 0.01 0.00 68 1006.7
20260504041804 36 206 0.0 0.9 0.00 0.01 0.00 69 1006.7
20260504041702 36 206 0.0 0.9 0.00 0.01 0.00 69 1006.7
20260504041559 36 206 0.0 0.9 0.00 0.01 0.00 67 1006.7
20260504041459 36 206 0.0 0.9 0.00 0.01 0.00 68 1006.7
20260504041357 36 206 0.0 1.7 0.00 0.01 0.00 68 1006.7
20260504041156 36 206 0.0 1.7 0.00 0.01 0.00 68 1006.6
20260504041053 36 206 0.0 1.7 0.00 0.01 0.00 68 1006.6
20260504040948 37 206 0.0 1.7 0.00 0.01 0.00 69 1006.6
20260504040847 37 206 0.0 1.7 0.00 0.01 0.00 67 1006.6
20260504040748 37 206 0.0 1.7 0.00 0.01 0.00 68 1006.6
20260504040645 37 206 0.0 1.7 0.00 0.01 0.00 68 1006.6
20260504040543 37 206 0.0 1.7 0.00 0.01 0.00 68 1006.6
20260504040440 37 206 0.0 1.7 0.00 0.01 0.00 66 1006.6
20260504040342 37 206 0.0 0.0 0.00 0.01 0.00 66 1006.5
20260504040243 37 206 0.0 0.0 0.00 0.01 0.00 67 1006.6
20260504040139 37 206 0.0 0.0 0.00 0.01 0.00 67 1006.5
20260504040039 37 206 0.0 0.0 0.00 0.01 0.00 66 1006.6
20260504035938 37 206 0.0 0.0 0.00 0.01 0.01 67 1006.6
20260504035837 37 206 0.0 0.0 0.00 0.01 0.01 66 1006.5
20260504035736 38 206 0.0 0.0 0.00 0.01 0.01 66 1006.5
20260504035635 38 206 0.0 0.0 0.00 0.01 0.01 65 1006.4
20260504035534 38 206 0.0 0.0 0.00 0.01 0.01 66 1006.4
20260504035434 38 206 0.0 0.0 0.00 0.01 0.01 66 1006.5
20260504035334 38 206 0.0 0.0 0.00 0.01 0.01 65 1006.4
20260504035234 38 206 0.0 0.0 0.00 0.01 0.01 65 1006.4
20260504035132 38 206 0.0 0.0 0.00 0.01 0.01 65 1006.4
20260504035030 38 206 0.0 0.9 0.00 0.01 0.01 65 1006.4
20260504034929 38 206 0.0 0.9 0.00 0.01 0.01 65 1006.4
20260504034827 38 206 0.0 1.7 0.00 0.01 0.01 66 1006.4
20260504034726 38 206 0.0 1.7 0.00 0.01 0.01 65 1006.4
20260504034625 38 206 0.0 1.7 0.00 0.01 0.01 65 1006.4
20260504034526 38 206 0.0 1.7 0.00 0.01 0.01 67 1006.4
20260504034423 38 206 0.0 1.7 0.00 0.01 0.01 66 1006.4
20260504034321 38 206 0.0 1.7 0.00 0.01 0.01 65 1006.4
20260504034221 38 206 0.0 1.7 0.00 0.01 0.01 65 1006.4
20260504034120 38 206 0.0 1.7 0.00 0.01 0.01 65 1006.4
20260504034019 38 206 0.0 1.7 0.00 0.01 0.01 66 1006.4
20260504033918 38 205 0.0 1.7 0.00 0.01 0.01 65 1006.4
20260504033819 37 207 0.0 0.0 0.00 0.01 0.01 68 1006.4
20260504033713 37 207 0.0 0.0 0.00 0.01 0.01 68 1006.4
20260504033612 37 207 0.0 0.0 0.00 0.01 0.01 67 1006.4
20260504033512 37 207 0.0 0.0 0.00 0.01 0.01 67 1006.4
20260504033412 37 207 0.0 0.0 0.00 0.01 0.01 69 1006.4
20260504033314 37 207 0.0 0.0 0.00 0.01 0.01 67 1006.3
20260504033213 37 207 0.0 0.0 0.00 0.01 0.01 69 1006.4
20260504033111 37 207 0.0 0.0 0.00 0.01 0.01 68 1006.4
20260504033011 37 207 0.0 0.0 0.00 0.01 0.01 68 1006.4
20260504032910 37 206 0.0 0.0 0.00 0.01 0.01 67 1006.4
20260504032807 37 206 0.0 0.0 0.00 0.01 0.01 68 1006.4
20260504032708 37 206 0.0 0.0 0.00 0.01 0.01 68 1006.4
20260504032606 37 206 0.0 0.0 0.00 0.01 0.01 68 1006.4
20260504032507 37 206 0.0 0.0 0.00 0.01 0.01 68 1006.4
20260504032405 37 206 0.0 0.0 0.00 0.01 0.01 68 1006.4
20260504032305 37 206 0.0 2.6 0.00 0.01 0.01 69 1006.4
20260504032205 37 206 0.0 2.6 0.00 0.01 0.01 68 1006.3
20260504032106 37 201 0.0 2.6 0.00 0.01 0.01 68 1006.4
20260504032002 37 201 0.0 2.6 0.00 0.01 0.01 69 1006.4
20260504031901 37 201 0.0 2.6 0.00 0.01 0.01 69 1006.4
20260504031700 37 201 0.0 2.6 0.00 0.01 0.01 68 1006.4
20260504031601 37 201 0.0 2.6 0.00 0.01 0.01 68 1006.4
20260504031501 37 201 0.0 2.6 0.00 0.01 0.01 69 1006.4
20260504031401 37 201 0.0 2.6 0.00 0.01 0.01 69 1006.4
20260504031300 37 201 0.0 1.7 0.00 0.01 0.01 69 1006.4
20260504031200 37 201 0.0 0.0 0.00 0.01 0.01 69 1006.4
20260504031101 37 201 0.0 0.0 0.00 0.01 0.01 70 1006.4
20260504031000 37 201 0.0 0.0 0.00 0.01 0.01 69 1006.4
20260504030900 37 201 0.0 0.0 0.00 0.01 0.01 70 1006.4
20260504030702 37 201 0.0 0.0 0.00 0.01 0.01 69 1006.4
20260504030600 37 201 0.0 0.0 0.00 0.01 0.01 69 1006.4
20260504030500 37 201 0.0 0.0 0.00 0.01 0.01 70 1006.4
20260504030412 37 201 0.0 0.0 0.00 0.01 0.01 70 1006.4
20260504030351 37 201 0.0 0.0 0.00 0.01 0.01 70 1006.4
20260504030200 37 201 0.0 0.0 0.00 0.01 0.01 72 1006.4
20260504030101 37 201 0.0 0.0 0.00 0.01 0.01 71 1006.3
20260504030000 37 201 0.0 0.0 0.00 0.01 0.01 71 1006.4
20260504025910 37 201 0.0 0.0 0.00 0.01 0.01 69 1006.4
20260504025851 37 201 0.0 0.0 0.00 0.01 0.01 70 1006.4
20260504025701 37 201 0.0 0.0 0.00 0.01 0.01 70 1006.4
20260504025601 37 201 0.0 1.7 0.00 0.01 0.01 70 1006.4
20260504025501 37 201 0.0 1.7 0.00 0.01 0.01 71 1006.4
20260504025356 37 201 0.0 1.7 0.00 0.01 0.01 70 1006.4
20260504025157 37 201 0.0 1.7 0.00 0.01 0.01 70 1006.4
20260504025056 37 201 0.0 1.7 0.00 0.01 0.01 70 1006.4
20260504024958 37 201 0.0 1.7 0.00 0.01 0.01 72 1006.4
20260504024856 37 201 0.0 1.7 0.00 0.01 0.01 71 1006.4
20260504024757 37 201 0.0 1.7 0.00 0.01 0.01 69 1006.4
20260504024653 37 201 0.0 1.7 0.00 0.01 0.01 70 1006.4
20260504024552 37 274 0.0 0.0 0.00 0.01 0.01 69 1006.4
20260504024453 37 274 0.0 0.0 0.00 0.01 0.01 70 1006.4
20260504024352 37 274 0.0 0.0 0.00 0.02 0.01 70 1006.4
20260504024254 37 274 0.0 0.0 0.00 0.02 0.01 70 1006.4
20260504024153 37 274 0.0 0.0 0.00 0.02 0.01 69 1006.5
20260504024052 37 274 0.0 0.0 0.00 0.02 0.01 70 1006.5
20260504023953 37 274 0.0 1.7 0.00 0.02 0.01 70 1006.5
20260504023909 37 274 0.0 1.7 0.00 0.02 0.01 70 1006.5
20260504023848 37 274 0.0 1.7 0.00 0.02 0.01 70 1006.5
20260504023652 36 274 0.0 1.7 0.00 0.02 0.01 71 1006.5
20260504023552 37 274 0.0 1.7 0.00 0.02 0.01 71 1006.5
20260504023454 37 274 0.0 1.7 0.00 0.02 0.01 73 1006.5
20260504023352 37 274 0.0 1.7 0.00 0.02 0.01 70 1006.5
20260504023152 37 274 0.0 1.7 0.00 0.02 0.01 71 1006.6
20260504023052 37 274 0.0 1.7 0.00 0.02 0.01 72 1006.6
20260504022951 37 274 0.0 1.7 0.00 0.02 0.01 71 1006.6
20260504022852 37 274 0.0 0.0 0.00 0.02 0.01 73 1006.6
20260504022652 37 274 0.0 0.0 0.00 0.03 0.01 71 1006.6
20260504022552 37 274 0.0 0.0 0.00 0.03 0.01 71 1006.6
20260504022452 37 274 0.0 0.0 0.00 0.03 0.01 70 1006.6
20260504022405 37 274 0.0 0.0 0.00 0.03 0.01 70 1006.6
20260504022347 37 274 0.0 0.0 0.00 0.03 0.01 70 1006.6
20260504022152 37 274 0.0 0.0 0.00 0.03 0.01 71 1006.6
20260504022052 37 274 0.0 0.0 0.00 0.03 0.01 71 1006.6
20260504021954 37 274 0.0 0.0 0.00 0.03 0.01 70 1006.6
20260504021852 37 274 0.0 0.0 0.00 0.04 0.01 70 1006.7
20260504021652 37 274 0.0 0.0 0.00 0.04 0.01 68 1006.6
20260504021552 37 274 0.0 0.0 0.00 0.04 0.01 68 1006.6
20260504021452 38 274 0.0 0.9 0.00 0.04 0.01 68 1006.6
20260504021353 38 274 0.0 0.9 0.00 0.04 0.01 67 1006.6
20260504021154 38 274 0.0 1.7 0.00 0.04 0.01 69 1006.6
20260504021052 38 274 0.0 1.7 0.00 0.04 0.01 68 1006.6
20260504020954 38 274 0.0 1.7 0.00 0.04 0.01 68 1006.7
20260504020908 38 274 0.0 1.7 0.00 0.04 0.01 68 1006.7
20260504020845 38 274 0.0 1.7 0.00 0.04 0.01 70 1006.6
20260504020643 38 274 0.0 1.7 0.00 0.04 0.01 69 1006.6
20260504020543 38 274 0.0 1.7 0.00 0.04 0.01 68 1006.6
20260504020442 38 274 0.0 1.7 0.00 0.04 0.01 67 1006.6
20260504020342 38 274 0.0 1.7 0.00 0.04 0.01 68 1006.6
20260504020141 38 275 0.0 0.9 0.00 0.04 0.01 67 1006.6
20260504020037 38 275 0.0 0.9 0.00 0.04 0.01 68 1006.6
20260504015939 38 275 0.0 0.9 0.00 0.04 0.01 68 1006.6
20260504015838 38 275 0.0 0.9 0.00 0.04 0.01 69 1006.6
20260504015634 37 275 0.0 0.9 0.00 0.05 0.01 68 1006.6
20260504015533 37 275 0.0 0.9 0.00 0.05 0.01 69 1006.6
20260504015430 38 275 0.0 0.9 0.00 0.05 0.01 69 1006.6
20260504015332 38 275 0.0 0.9 0.00 0.05 0.01 71 1006.6
20260504015115 38 275 0.0 0.9 0.00 0.05 0.01 70 1006.6
20260504015017 38 275 0.0 0.9 0.00 0.05 0.01 70 1006.6
20260504014916 38 275 0.0 0.9 0.00 0.05 0.01 71 1006.5
20260504014816 38 275 0.0 0.9 0.00 0.05 0.01 70 1006.6
20260504014611 38 275 0.0 0.9 0.00 0.05 0.01 69 1006.5
20260504014510 38 275 0.0 0.9 0.00 0.05 0.01 69 1006.6
20260504014409 38 275 0.0 0.9 0.00 0.05 0.01 70 1006.6
20260504014308 38 275 0.0 0.9 0.00 0.05 0.01 72 1006.6
20260504014106 38 275 0.0 0.9 0.00 0.05 0.01 70 1006.6
20260504014034 38 275 0.0 0.9 0.00 0.05 0.01 69 1006.6
20260504013905 38 275 0.0 2.6 0.00 0.05 0.01 68 1006.6
20260504013830 38 275 0.0 2.6 0.00 0.05 0.01 70 1006.6
20260504013806 37 275 0.0 2.6 0.00 0.05 0.01 69 1006.5
20260504013556 37 275 0.0 2.6 0.00 0.05 0.01 68 1006.5
20260504013457 37 275 0.0 2.6 0.00 0.05 0.01 69 1006.5
20260504013357 37 275 0.0 2.6 0.00 0.05 0.01 70 1006.6
20260504013254 37 275 0.0 2.6 0.00 0.06 0.01 71 1006.5
20260504013054 37 275 0.0 2.6 0.00 0.06 0.01 70 1006.4
20260504013023 37 289 0.0 2.6 0.00 0.06 0.01 71 1006.5
20260504012851 37 246 0.0 2.6 0.00 0.06 0.01 72 1006.5
20260504012812 37 246 0.0 2.6 0.00 0.06 0.01 71 1006.4
20260504012751 37 245 0.0 2.6 0.00 0.06 0.01 70 1006.5
20260504012546 37 273 0.0 0.0 0.00 0.06 0.01 71 1006.5
20260504012445 37 273 0.0 0.0 0.00 0.06 0.01 70 1006.5
20260504012342 37 273 0.0 0.0 0.00 0.06 0.01 70 1006.4
20260504012244 37 273 0.0 0.0 0.00 0.06 0.01 71 1006.5
20260504012031 37 273 0.0 0.0 0.00 0.07 0.01 71 1006.5
20260504011930 37 273 0.0 0.0 0.00 0.07 0.01 71 1006.5
20260504011830 37 273 0.0 0.9 0.00 0.07 0.01 72 1006.4
20260504011754 37 273 0.0 1.7 0.00 0.07 0.01 72 1006.5
20260504011732 37 273 0.0 1.7 0.00 0.07 0.01 70 1006.5
20260504011527 37 273 0.0 1.7 0.00 0.07 0.01 70 1006.4
20260504011426 37 273 0.0 1.7 0.00 0.07 0.01 71 1006.4
20260504011325 37 273 0.0 1.7 0.00 0.08 0.01 71 1006.4
20260504011224 37 273 0.0 1.7 0.00 0.08 0.01 70 1006.4
20260504011016 37 273 0.0 1.7 0.00 0.08 0.01 71 1006.4
20260504010914 37 273 0.0 1.7 0.00 0.08 0.01 72 1006.4
20260504010816 37 273 0.0 1.7 0.00 0.09 0.01 72 1006.4
20260504010715 37 273 0.0 1.7 0.00 0.09 0.01 72 1006.4
20260504010508 37 273 0.0 1.7 0.00 0.09 0.01 71 1006.4
20260504010410 37 273 0.0 1.7 0.00 0.10 0.01 72 1006.4
20260504010307 37 273 0.0 5.2 0.00 0.10 0.01 73 1006.3
20260504010208 37 273 0.0 5.2 0.00 0.11 0.01 71 1006.3
20260504010006 37 273 0.0 5.2 0.00 0.12 0.01 72 1006.3
20260504005901 37 273 0.0 5.2 0.00 0.13 0.01 73 1006.3
20260504005804 37 273 0.0 5.2 0.00 0.14 0.01 71 1006.3
20260504005702 37 207 0.0 5.2 0.00 0.16 0.01 71 1006.3
20260504005454 37 207 0.0 5.2 0.00 0.17 0.01 71 1006.2
20260504005353 37 204 0.0 5.2 0.00 0.17 0.01 73 1006.2
20260504005253 37 5 0.0 2.6 0.00 0.17 0.01 74 1006.2
20260504005153 37 5 0.0 2.6 0.00 0.17 0.01 74 1006.2
20260504004944 37 5 0.0 2.6 0.00 0.17 0.01 75 1006.2
20260504004842 37 5 0.0 2.6 0.00 0.17 0.01 73 1006.2
20260504004740 37 5 0.0 2.6 0.00 0.17 0.01 72 1006.2
20260504004642 37 240 0.0 0.9 0.00 0.17 0.01 73 1006.1
20260504004438 37 240 0.0 0.9 0.00 0.17 0.01 73 1006.2
20260504004418 37 240 0.0 0.9 0.00 0.17 0.01 72 1006.2
20260504004241 37 240 0.0 0.9 0.00 0.17 0.01 72 1006.1
20260504004203 37 240 0.0 0.9 0.00 0.17 0.01 72 1006.1
20260504004138 37 240 0.0 0.9 0.00 0.17 0.01 73 1006.1
20260504003933 37 240 0.0 0.9 0.00 0.17 0.01 73 1006.1
20260504003830 37 240 0.0 0.9 0.00 0.17 0.01 72 1006.1
20260504003730 37 240 0.0 0.9 0.00 0.17 0.01 73 1006.1
20260504003630 37 240 0.0 0.9 0.00 0.17 0.01 72 1006.1
20260504003417 37 240 0.0 0.9 0.00 0.17 0.01 72 1006.0
20260504003316 37 240 0.0 0.9 0.00 0.17 0.01 72 1006.0
20260504003217 37 240 0.0 0.9 0.00 0.17 0.01 72 1006.0
20260504003115 37 240 0.0 0.9 0.00 0.17 0.01 73 1006.0
20260504002913 37 240 0.0 0.9 0.00 0.17 0.01 72 1006.1
20260504002810 37 240 0.0 0.9 0.00 0.17 0.01 72 1006.0
20260504002711 37 240 0.0 0.9 0.00 0.17 0.01 72 1006.0
20260504002637 37 240 0.0 0.9 0.00 0.17 0.01 72 1006.0
20260504002615 37 240 0.0 0.9 0.00 0.17 0.01 74 1006.0
20260504002407 38 240 0.0 0.9 0.00 0.17 0.01 73 1005.9
20260504002304 38 240 0.0 0.9 0.00 0.17 0.01 71 1005.9
20260504002206 38 240 0.0 0.0 0.00 0.17 0.01 70 1006.0
20260504002105 38 240 0.0 0.0 0.00 0.17 0.01 70 1006.0
20260504001855 38 240 0.0 0.0 0.00 0.17 0.01 71 1006.0
20260504001754 38 240 0.0 0.0 0.00 0.17 0.01 69 1006.0
20260504001655 38 240 0.0 0.0 0.00 0.17 0.01 69 1005.9
20260504001554 38 240 0.0 0.0 0.00 0.17 0.01 70 1005.9
20260504001345 38 240 0.0 0.0 0.00 0.17 0.01 72 1005.9
20260504001245 38 240 0.0 0.0 0.00 0.17 0.01 71 1005.9
20260504001144 38 240 0.0 0.0 0.00 0.17 0.01 71 1005.9
20260504001043 38 240 0.0 0.0 0.00 0.17 0.01 72 1005.9
20260504000841 39 240 0.0 1.7 0.00 0.17 0.01 69 1005.9
20260504000738 39 240 0.0 1.7 0.00 0.17 0.01 69 1005.8
20260504000640 39 240 0.0 1.7 0.00 0.17 0.01 68 1005.8
20260504000537 39 240 0.0 1.7 0.00 0.17 0.01 70 1005.8
20260504000332 39 240 0.0 1.7 0.00 0.17 0.01 69 1005.8
20260504000234 39 240 0.0 1.7 0.00 0.17 0.01 68 1005.7
20260504000132 39 240 0.0 1.7 0.00 0.17 0.01 68 1005.7
20260504000029 39 240 0.0 1.7 0.00 0.17 0.01 69 1005.8
20260503235821 39 244 0.0 0.9 0.00 0.17 0.01 70 1005.7
20260503235723 39 244 0.0 2.6 0.00 0.17 0.01 70 1005.7
20260503235622 39 244 0.0 2.6 0.00 0.17 0.01 68 1005.7
20260503235523 39 244 0.0 2.6 0.00 0.17 0.01 68 1005.6
20260503235316 39 244 0.0 2.6 0.00 0.17 0.01 67 1005.7
20260503235216 40 244 0.0 2.6 0.00 0.17 0.01 68 1005.6
20260503235117 40 244 0.0 2.6 0.00 0.17 0.01 68 1005.6
20260503235015 40 244 0.0 2.6 0.00 0.17 0.01 68 1005.6
20260503234805 40 244 0.0 2.6 0.00 0.17 0.01 66 1005.6
20260503234706 40 248 0.0 0.0 0.00 0.17 0.01 67 1005.7
20260503234605 40 248 0.0 0.0 0.00 0.17 0.01 67 1005.6
20260503234505 40 248 0.0 2.6 0.00 0.17 0.01 68 1005.6
20260503234259 40 248 0.0 2.6 0.00 0.17 0.01 66 1005.6
20260503234201 40 248 0.0 2.6 0.00 0.17 0.01 66 1005.6
20260503234058 40 248 0.0 2.6 0.00 0.17 0.01 67 1005.6
20260503233959 40 248 0.0 2.6 0.00 0.17 0.01 65 1005.6
20260503233753 40 248 0.0 2.6 0.00 0.17 0.01 67 1005.6
20260503233650 41 248 0.0 2.6 0.00 0.17 0.01 67 1005.6
20260503233551 41 248 0.0 2.6 0.00 0.17 0.01 67 1005.6
20260503233451 41 333 0.0 1.7 0.00 0.17 0.01 66 1005.6
20260503233243 41 260 0.0 0.9 0.00 0.17 0.01 66 1005.5
20260503233144 41 260 0.0 1.7 0.00 0.17 0.01 66 1005.5
20260503233044 41 260 0.0 1.7 0.00 0.17 0.01 66 1005.6
20260503232943 41 260 0.0 1.7 0.00 0.17 0.01 64 1005.5
20260503232738 41 260 0.9 6.1 0.00 0.17 0.01 64 1005.5
20260503232637 41 259 0.9 6.1 0.00 0.17 0.01 64 1005.5
20260503232538 41 259 0.9 6.1 0.00 0.17 0.01 64 1005.5
20260503232437 41 259 0.9 6.1 0.00 0.17 0.01 63 1005.5
20260503232228 41 258 0.9 6.1 0.00 0.17 0.01 64 1005.6
20260503232127 41 259 0.9 6.1 0.00 0.17 0.01 64 1005.6
20260503232029 41 258 0.9 6.1 0.00 0.17 0.01 64 1005.6
20260503231929 41 257 0.9 6.1 0.00 0.17 0.01 63 1005.6
20260503231715 41 202 0.9 2.6 0.00 0.17 0.01 63 1005.5
20260503231614 41 202 0.9 2.6 0.00 0.17 0.01 63 1005.5
20260503231513 41 202 0.9 2.6 0.00 0.17 0.01 63 1005.5
20260503231413 41 200 0.9 2.6 0.00 0.17 0.01 63 1005.5
20260503231209 41 17 0.9 4.3 0.00 0.17 0.01 64 1005.5
20260503231107 41 72 0.9 10.4 0.00 0.17 0.01 64 1005.4
20260503231009 41 66 0.9 10.4 0.00 0.17 0.01 63 1005.5
20260503230934 41 54 0.9 10.4 0.00 0.17 0.01 64 1005.5
20260503230913 41 54 0.9 10.4 0.00 0.17 0.01 64 1005.5
20260503230702 41 201 0.9 10.4 0.00 0.17 0.01 63 1005.5
20260503230603 41 201 0.9 10.4 0.00 0.17 0.01 62 1005.4
20260503230503 41 201 0.9 10.4 0.00 0.18 0.01 63 1005.5
20260503230401 41 201 0.9 10.4 0.00 0.18 0.01 62 1005.5
20260503230155 42 11 0.0 10.4 0.00 0.18 0.01 62 1005.4
20260503230053 42 278 0.0 2.6 0.00 0.18 0.01 63 1005.5
20260503225952 42 260 0.0 2.6 0.00 0.18 0.01 63 1005.5
20260503225853 42 260 0.0 3.5 0.00 0.18 0.01 63 1005.5
20260503225649 42 239 0.9 3.5 0.00 0.18 0.01 64 1005.4
20260503225545 42 239 0.9 3.5 0.00 0.18 0.01 63 1005.4
20260503225446 42 257 0.9 3.5 0.00 0.18 0.01 62 1005.5
20260503225345 42 257 0.9 3.5 0.00 0.18 0.01 61 1005.5
20260503225146 42 317 0.9 13.9 0.00 0.18 0.01 62 1005.5
20260503225045 42 318 1.7 13.9 0.00 0.18 0.01 61 1005.4
20260503224942 42 318 1.7 13.9 0.00 0.18 0.01 61 1005.4
20260503224841 42 286 1.7 13.9 0.00 0.18 0.01 62 1005.4
20260503224627 42 320 1.7 13.9 0.00 0.18 0.01 62 1005.4
20260503224526 42 296 1.7 13.9 0.00 0.18 0.01 63 1005.4
20260503224425 42 295 1.7 13.9 0.00 0.18 0.01 61 1005.4
20260503224327 42 295 1.7 13.9 0.00 0.18 0.01 62 1005.5
20260503224226 42 32 1.7 7.0 0.00 0.18 0.01 62 1005.4
20260503224122 42 302 1.7 6.1 0.00 0.18 0.01 62 1005.5
20260503224020 43 233 1.7 6.1 0.00 0.18 0.01 62 1005.5
20260503223920 43 12 1.7 6.1 0.00 0.18 0.01 61 1005.4
20260503223820 43 289 1.7 6.1 0.00 0.18 0.01 61 1005.5
20260503223720 43 323 0.9 6.1 0.00 0.18 0.01 60 1005.4
20260503223615 43 294 0.9 6.1 0.00 0.18 0.01 61 1005.4
20260503223513 43 241 1.7 6.1 0.00 0.18 0.01 61 1005.4
20260503223414 43 296 0.9 7.0 0.00 0.18 0.01 63 1005.3
20260503223314 43 302 0.9 7.0 0.00 0.18 0.01 61 1005.4
20260503223215 43 316 0.9 7.0 0.00 0.18 0.01 62 1005.3
20260503223108 43 43 0.9 7.0 0.00 0.18 0.01 60 1005.3
20260503223008 43 273 0.9 7.0 0.00 0.18 0.01 60 1005.3
20260503222908 43 246 0.9 7.0 0.00 0.18 0.01 61 1005.3
20260503222805 43 246 0.9 7.0 0.00 0.18 0.01 60 1005.1
20260503222705 43 241 0.9 7.0 0.00 0.18 0.01 61 1005.1
20260503222600 43 241 0.9 7.0 0.00 0.18 0.01 60 1005.3
20260503222500 43 288 0.9 7.0 0.00 0.18 0.01 62 1005.1
20260503222400 43 307 0.9 7.0 0.00 0.18 0.01 62 1005.3
20260503222300 43 307 1.7 7.0 0.00 0.18 0.01 61 1005.1
20260503222159 43 307 1.7 7.0 0.00 0.18 0.01 61 1005.1
20260503222054 43 307 1.7 7.0 0.00 0.18 0.01 61 1005.3
20260503221951 43 302 1.7 7.0 0.00 0.18 0.01 61 1005.1
20260503221853 43 302 1.7 7.0 0.00 0.18 0.01 62 1005.1
20260503221752 43 234 1.7 7.0 0.00 0.18 0.01 62 1005.1
20260503221653 43 22 1.7 7.0 0.00 0.18 0.01 60 1005.1
20260503221539 43 247 0.9 7.0 0.00 0.18 0.01 60 1005.3
20260503221437 43 293 0.9 7.0 0.00 0.18 0.01 61 1005.1
20260503221338 43 332 1.7 7.0 0.00 0.18 0.01 61 1005.1
20260503221138 43 313 1.7 7.0 0.00 0.18 0.01 61 1005.0
20260503221035 43 15 1.7 7.0 0.00 0.18 0.01 59 1005.0
20260503220936 43 16 1.7 7.0 0.00 0.18 0.01 59 1005.1
20260503220836 43 15 1.7 7.0 0.00 0.18 0.01 60 1005.1
20260503220632 43 214 2.6 8.7 0.00 0.18 0.01 61 1005.0
20260503220529 43 215 2.6 8.7 0.00 0.18 0.01 59 1005.0
20260503220425 43 214 2.6 8.7 0.00 0.18 0.01 59 1005.0
20260503220327 43 11 2.6 8.7 0.00 0.18 0.01 59 1004.9
20260503220225 43 14 1.7 8.7 0.00 0.18 0.01 60 1005.0
20260503220126 43 284 1.7 8.7 0.00 0.18 0.01 61 1004.8
20260503220016 43 273 1.7 8.7 0.00 0.18 0.01 59 1004.9
20260503215915 43 19 1.7 8.7 0.00 0.18 0.01 60 1004.9
20260503215817 43 20 1.7 8.7 0.00 0.18 0.01 59 1005.0
20260503215715 43 309 1.7 7.0 0.00 0.18 0.01 60 1005.0
20260503215616 43 275 1.7 7.0 0.00 0.18 0.01 60 1004.9
20260503215511 43 272 1.7 7.0 0.00 0.18 0.01 61 1004.9
20260503215411 43 28 1.7 7.0 0.00 0.18 0.01 61 1005.0
20260503215342 43 26 1.7 7.0 0.00 0.18 0.01 59 1005.0
20260503215211 43 341 1.7 7.0 0.00 0.18 0.01 60 1004.9
20260503215110 43 297 1.7 7.0 0.00 0.18 0.01 61 1004.9
20260503215005 43 299 1.7 7.0 0.00 0.18 0.01 61 1005.0
20260503214903 43 316 1.7 7.0 0.00 0.18 0.01 59 1004.9
20260503214805 43 312 1.7 7.0 0.00 0.18 0.01 60 1004.9
20260503214704 43 312 1.7 5.2 0.00 0.18 0.01 59 1004.9
20260503214604 43 282 1.7 7.0 0.00 0.18 0.01 60 1004.9
20260503214454 44 261 1.7 7.0 0.00 0.18 0.01 59 1004.9
20260503214354 44 261 1.7 7.0 0.00 0.18 0.01 60 1004.9
20260503214255 44 5 1.7 7.0 0.00 0.18 0.01 59 1004.9
20260503214152 44 261 1.7 7.0 0.00 0.18 0.01 59 1004.9
20260503214050 44 288 1.7 7.0 0.00 0.18 0.01 59 1004.9
20260503213946 44 205 1.7 7.0 0.00 0.19 0.01 59 1005.0
20260503213844 44 336 1.7 7.0 0.00 0.19 0.01 58 1004.9
20260503213743 44 317 1.7 7.0 0.00 0.19 0.01 59 1004.9
20260503213644 44 173 1.7 7.0 0.00 0.19 0.01 59 1004.9
20260503213544 44 275 1.7 7.8 0.00 0.19 0.01 60 1005.0
20260503213443 44 301 1.7 7.8 0.00 0.19 0.01 62 1005.0
20260503213342 44 302 1.7 7.8 0.00 0.19 0.01 60 1005.0
20260503213242 44 317 1.7 7.8 0.00 0.19 0.01 60 1004.9
20260503213140 44 292 1.7 7.8 0.00 0.19 0.01 60 1005.0
20260503213038 44 0 1.7 7.8 0.00 0.19 0.01 58 1004.9
20260503212928 44 339 1.7 7.8 0.00 0.19 0.01 57 1004.9
20260503212828 44 186 1.7 7.8 0.00 0.19 0.01 58 1005.0
20260503212628 44 323 0.9 7.8 0.00 0.19 0.01 59 1005.0
20260503212528 44 252 0.9 6.1 0.00 0.19 0.01 58 1005.0
20260503212424 44 252 1.7 7.8 0.00 0.19 0.01 58 1005.0
20260503212324 44 168 1.7 7.8 0.00 0.19 0.01 57 1004.9
20260503212224 44 282 0.9 7.8 0.00 0.19 0.01 58 1004.9
20260503212124 44 109 1.7 7.8 0.00 0.19 0.01 58 1004.9
20260503212022 44 14 1.7 7.8 0.00 0.19 0.01 58 1004.9
20260503211919 44 288 1.7 7.8 0.00 0.19 0.01 59 1005.0
20260503211815 44 279 1.7 7.8 0.00 0.19 0.01 59 1005.0
20260503211615 44 267 1.7 7.8 0.00 0.19 0.01 59 1004.9
20260503211516 44 10 1.7 7.8 0.00 0.19 0.01 60 1004.9
20260503211405 44 193 1.7 5.2 0.00 0.19 0.01 62 1004.9
20260503211306 44 170 1.7 5.2 0.00 0.19 0.01 60 1005.0
20260503211206 44 62 1.7 5.2 0.00 0.19 0.01 57 1004.9
20260503211105 44 31 1.7 5.2 0.00 0.19 0.01 59 1005.0
20260503211007 44 30 1.7 5.2 0.00 0.19 0.01 57 1004.9
20260503210906 44 25 1.7 5.2 0.00 0.19 0.01 59 1005.0
20260503210805 44 258 0.9 5.2 0.00 0.19 0.01 58 1005.0
20260503210702 44 269 0.9 4.3 0.00 0.19 0.01 58 1004.9
20260503210602 44 267 0.9 4.3 0.00 0.19 0.01 58 1004.9
20260503210500 44 213 0.9 4.3 0.00 0.19 0.01 57 1004.9
20260503210354 44 306 0.9 4.3 0.00 0.20 0.01 58 1005.0
20260503210253 44 310 0.9 4.3 0.00 0.21 0.01 60 1005.0
20260503210155 44 323 0.9 4.3 0.00 0.21 0.01 60 1004.9
20260503210055 44 17 1.7 5.2 0.00 0.22 0.01 60 1004.8
20260503205954 44 15 1.7 5.2 0.00 0.23 0.01 60 1004.9
20260503205841 44 355 1.7 5.2 0.00 0.23 0.01 59 1004.9
20260503205742 44 338 1.7 5.2 0.00 0.23 0.01 61 1004.8
20260503205641 44 338 1.7 5.2 0.00 0.23 0.01 62 1004.8
20260503205543 44 317 1.7 5.2 0.00 0.23 0.01 60 1004.8
20260503205440 44 306 1.7 5.2 0.00 0.24 0.01 58 1004.8
20260503205336 44 11 1.7 5.2 0.00 0.24 0.01 58 1004.8
20260503205233 44 319 1.7 10.4 0.00 0.24 0.01 61 1004.8
20260503205135 44 5 1.7 10.4 0.00 0.24 0.01 61 1004.8
20260503205033 44 5 1.7 10.4 0.00 0.24 0.01 63 1004.8
20260503204935 44 60 1.7 10.4 0.00 0.24 0.01 62 1004.7
20260503204834 44 13 1.7 10.4 0.00 0.24 0.01 61 1004.7
20260503204735 44 109 1.7 10.4 0.00 0.24 0.01 60 1004.6
20260503204635 44 159 1.7 10.4 0.00 0.24 0.01 60 1004.9
20260503204532 44 0 1.7 10.4 0.00 0.24 0.01 59 1004.8
20260503204432 43 0 2.6 10.4 0.00 0.24 0.01 60 1004.8
20260503204345 43 348 2.6 10.4 0.00 0.24 0.01 60 1004.8
20260503204324 43 50 2.6 10.4 0.00 0.24 0.01 62 1004.8
20260503204129 43 194 2.6 10.4 0.00 0.24 0.01 61 1004.8
20260503204029 43 24 2.6 10.4 0.00 0.24 0.01 63 1004.8
20260503203930 43 11 2.6 10.4 0.00 0.24 0.01 63 1004.8
20260503203829 43 284 3.5 10.4 0.00 0.24 0.01 61 1004.8
20260503203729 43 298 2.6 10.4 0.00 0.25 0.01 60 1004.7
20260503203629 43 286 2.6 10.4 0.00 0.25 0.01 61 1004.9
20260503203531 43 294 2.6 10.4 0.00 0.25 0.01 60 1004.8
20260503203429 43 317 2.6 9.6 0.00 0.25 0.01 62 1004.8
20260503203329 43 296 2.6 9.6 0.00 0.25 0.01 60 1004.7
20260503203229 43 297 2.6 9.6 0.00 0.25 0.01 60 1004.8
20260503203131 43 318 2.6 9.6 0.00 0.25 0.01 59 1004.7
20260503203031 43 217 1.7 9.6 0.00 0.25 0.01 59 1004.9
20260503202927 43 11 1.7 6.1 0.00 0.26 0.01 60 1004.7
20260503202829 44 244 1.7 6.1 0.00 0.26 0.01 59 1004.8
20260503202728 44 188 1.7 6.1 0.00 0.26 0.01 59 1004.8
20260503202627 44 306 1.7 6.1 0.00 0.26 0.01 59 1004.7
20260503202527 44 192 0.9 5.2 0.00 0.26 0.01 59 1004.7
20260503202429 44 115 0.9 5.2 0.00 0.26 0.01 59 1004.8